Worland, WY

9:15 PM MDT on September 18, 2019 (GMT -0600)
Worland Municipal

Weather History for KWRL - August, 2019

Change the Weather History Date:

Tuesday, August 20, 2019

  Actual Average Record
Temperature  
Mean Temperature 76 °F 70 °F  
Max Temperature 95 °F 87 °F 102 °F (1973)
Min Temperature 57 °F 52 °F 41 °F (2016)
Degree Days  
Heating Degree Days 0 1  
Month to date heating degree days 0 4  
Since 1 June heating degree days 108 110  
Since 1 July heating degree days 4 17  
Cooling Degree Days 11 5  
Month to date cooling degree days 158 137  
Year to date cooling degree days 416 462  
Since 1 June cooling degree days 416 450  
Growing Degree Days 26 (Base 50)    
Moisture  
Dew Point 46 °F    
Average Humidity 37    
Maximum Humidity 56    
Minimum Humidity 17    
Precipitation  
Precipitation 0.00 in 0.01 in 0.38 in (1983)
Month to date precipitation 0.37 0.28  
Year to date precipitation 7.86 5.30  
Sea Level Pressure  
Sea Level Pressure 29.93 in    
Wind  
Wind Speed 5 mph (NE)    
Max Wind Speed 16 mph    
Max Gust Speed 22 mph    
Visibility 10 miles    
Events      
T = Trace of Precipitation, MM = Missing Value Source: NWS Daily Summary

Daily Weather History Graph

Daily Weather History Graph

Search for Another Location

Airport or City:

Astronomy

Aug. 20, 2019 Rise Set
Actual Time 6:21 AM MDT 8:08 PM MDT
Civil Twilight 5:50 AM MDT 8:39 PM MDT
Nautical Twilight 5:12 AM MDT 9:16 PM MDT
Astronomical Twilight 4:32 AM MDT 9:56 PM MDT
Moon 10:48 PM MDT (8/20) 11:11 AM MDT (8/20)
Length of Visible Light 14h 48m
Length of Day
13h 47m
Waning Gibbous, 77% of the Moon is Illuminated
Aug 20
Waning Gibbous
Aug 23
Last Quarter
Aug 30
New
Sep 5
First Quarter
Sep 13
Full

Hourly Weather History & Observations

Time (MDT) Temp. Dew Point Humidity Pressure Visibility Wind Dir Wind Speed Gust Speed Precip Events Conditions
12:53 AM 66.0 °F 41.0 °F 40% 29.83 in 10.0 mi South 4.6 mph - N/A   Clear
1:53 AM 69.1 °F 39.9 °F 35% 29.85 in 10.0 mi ENE 3.5 mph - N/A   Clear
2:53 AM 68.0 °F 42.1 °F 39% 29.86 in 10.0 mi NE 5.8 mph - N/A   Clear
3:53 AM 62.1 °F 43.0 °F 50% 29.89 in 10.0 mi Calm Calm - N/A   Clear
4:53 AM 60.1 °F 42.1 °F 51% 29.91 in 10.0 mi South 5.8 mph - N/A   Clear
5:53 AM 61.0 °F 41.0 °F 48% 29.93 in 10.0 mi South 5.8 mph - N/A   Clear
6:53 AM 62.1 °F 39.9 °F 44% 29.96 in 10.0 mi SSE 3.5 mph - N/A   Clear
7:53 AM 62.1 °F 46.0 °F 56% 30.00 in 10.0 mi Calm Calm - N/A   Clear
8:53 AM 69.1 °F 48.0 °F 47% 30.03 in 10.0 mi SW 4.6 mph - N/A   Clear
9:53 AM 72.0 °F 42.1 °F 34% 30.01 in 10.0 mi Calm Calm - N/A   Clear
10:53 AM 79.0 °F 45.0 °F 30% 30.00 in 10.0 mi Variable 4.6 mph - N/A   Clear
11:53 AM 82.0 °F 48.0 °F 30% 29.98 in 10.0 mi North 5.8 mph - N/A   Clear
12:53 PM 84.9 °F 48.0 °F 28% 29.97 in 10.0 mi Variable 5.8 mph - N/A   Clear
1:53 PM 90.0 °F 46.9 °F 23% 29.93 in 10.0 mi NNE 5.8 mph - N/A   Clear
2:53 PM 91.0 °F 46.0 °F 21% 29.90 in 10.0 mi NNE 6.9 mph - N/A   Clear
3:53 PM 91.9 °F 46.0 °F 21% 29.89 in 10.0 mi NW 8.1 mph - N/A   Clear
4:53 PM 91.9 °F 45.0 °F 20% 29.88 in 10.0 mi NNW 4.6 mph - N/A   Clear
5:53 PM 93.0 °F 43.0 °F 18% 29.86 in 10.0 mi NW 5.8 mph - N/A   Clear
6:53 PM 89.1 °F 48.9 °F 25% 29.86 in 10.0 mi North 6.9 mph - N/A   Clear
7:53 PM 80.1 °F 51.1 °F 36% 29.90 in 10.0 mi NNE 8.1 mph - N/A   Clear
8:53 PM 80.1 °F 50.0 °F 35% 29.92 in 10.0 mi ENE 11.5 mph 23.0 mph N/A   Clear
9:53 PM 75.9 °F 51.1 °F 42% 29.96 in 10.0 mi NNE 8.1 mph - N/A   Clear
10:53 PM 72.0 °F 53.1 °F 51% 29.95 in 10.0 mi East 3.5 mph - N/A   Clear
11:53 PM 71.1 °F 53.1 °F 53% 29.95 in 10.0 mi East 4.6 mph - N/A   Clear